Location: Burjasot
(39.5167°N, 0.4167°W)
Time: 03:36:56
(UTC+02:00)

ISS - Pass Details

Date: 23 May 2019
Orbit: 407 x 418 km, 51.6° (Epoch: 25 June)

Event Time Altitude Azimuth Distance (km) Brightness Sun altitude
Rises 21:42:31 0° 258° (WSW) 2,339 0.8 -5.3°
Reaches altitude 10° 21:44:47 10° 270° (W) 1,483 0.1 -5.7°
Maximum altitude 21:47:43 28° 332° (NNW) 812 -1.5 -6.1°
Drops below altitude 10° 21:50:41 10° 34° (NE) 1,495 -0.9 -6.6°
Sets 21:52:58 0° 46° (NE) 2,363 -0.1 -7.0°
